Погода в Кельме

Литва     55°37′56″N   22°56′26″E
темп.,
°C
ветер,
м/с
пор.,
м/с
влажн.,
%
обл.,
%
осадки,
мм/ч
давл.,
гПа
погр.,
м
15 апреля, чт
чт1500:00+3ссв61272100 0.0 1023680
03:00+2ссв61494100 0.4 1023709
06:00+4св61377100 0.1 1022815
09:00+4ссв61373100 0.1 1023745
12:00+8св71157100 0.0 1022952
15:00+10св71149100 0.0 10221237
18:00+9св6115197 0.0 10211338
21:00+7св61254100 0.0 1021831
16 апреля, пт
пт1600:00+4ссв61285100 0.1 1021819
03:00+4ссв61281100 0.2 1020734
06:00+4ссв61278100 0.1 1019642
09:00+5ссв61383100 0.1 1019672
12:00+5св61289100 0.4 1019683
15:00+6св51090100 0.8 1019651
18:00+8св51088100 0.0 1020643
21:00+8всв51189100 0.0 1021705
17 апреля, сб
сб1700:00+8св41189100 0.0 1021398
03:00+8св41092100 0.0 1021423
06:00+8св51194100 0.6 1021601
09:00+8всв599189 1.3 1022522
12:00+10в5781100 0.0 1023803
15:00+11всв5674100 0.1 1023906
18:00+12в487392 0.0 1023944
21:00+9св3108784 0.0 1023266
18 апреля, вс
вс1800:00+8всв4119174 0.0 1023283
03:00+7св3109527 0.0 1023234
06:00+7всв4119264 0.0 1023319
09:00+9всв51080100 0.0 1023397
12:00+13в576598 0.0 1023841
15:00+15в565681 0.0 10221470
18:00+14всв465780 0.0 10221053
21:00+11св397184 0.0 1023204
19 апреля, пн
пн1900:00+10всв3774100 0.0 1023187
03:00+10всв2576100 0.1 1024132
06:00+9всв2680100 0.0 1024157
09:00+10в3880100 0.2 1024296
12:00+13вюв565688 0.3 10241508
15:00+14вюв5649100 0.5 10242021
18:00+14вюв474842 0.2 10241835
21:00+9в367471 0.2 1024106